Location: Unspecified
(0.0000°N, 0.0000°E)
Time: 02:55:00
(UTC+00:00)

ISS - Pass Details

Date: 04 March 2026
Orbit: 417 x 426 km, 51.6° (Epoch: 16 March)

Event Time Altitude Azimuth Distance (km) Brightness Sun altitude
Rises 19:05:53 0° 203° (SSW) 2,381 0.5 -13.5°
Reaches altitude 10° 19:08:06 10° 193° (SSW) 1,514 -0.7 -14.0°
Maximum altitude 19:11:15 35° 126° (SE) 701 -3.0 -14.8°
Enters shadow 19:11:59 31° 96° (E) 768 -3.0 -15.0°
